Location: Vancouver
(49.2500°N, 123.1330°W)
Time: 20:37:48
(UTC-08:00)

Iridium 21 - Visible Passes

Search period start: 02 December 2016 00:00
Search period end: 12 December 2016 00:00
Orbit: 776 x 779 km, 86.4° (Epoch: 02 December)

Date Brightness Start Highest point End Pass type
(mag) Time Alt. Az. Time Alt. Az. Time Alt. Az.
02 Dec 8.3 17:52:08 10° W 17:54:14 12° WNW 17:56:21 10° NW visible
03 Dec 8.0 17:16:25 10° WSW 17:20:15 20° WNW 17:24:07 10° NNW visible
06 Dec 8.1 17:17:39 10° WSW 17:20:38 15° WNW 17:23:37 10° NNW visible
09 Dec 8.4 17:19:41 10° W 17:21:03 11° WNW 17:22:26 10° NW visible
